• In Portugal
  • List of Countries
  • For 7 days
  • Water Temperature
  • Satellite Maps
  • Weather Map
  • Weather Widgets
  • user-avatar
    Login

    Hourly Weather Kalat

    Today, 26 September, Tuesday

    Time Temperature Precipitation Wind Pressure Humidity
    00:00 -1°C° 0 mm 2 mps 478 mmHg 54%
    01:00 -1°C° 0 mm 2 mps 477 mmHg 54%
    02:00 -1°C° 0 mm 2 mps 477 mmHg 54%
    03:00 -1°C° 0 mm 2 mps 477 mmHg 53%
    04:00 -1°C° 0 mm 2 mps 477 mmHg 53%
    05:00 -3°C° 0 mm 2 mps 476 mmHg 54%
    06:00 -2°C° 0 mm 2 mps 477 mmHg 50%
    07:00 +2°C° 0 mm 1 mps 477 mmHg 46%
    08:00 +3°C° 0 mm 1 mps 478 mmHg 42%
    09:00 +4°C° 0 mm 1 mps 479 mmHg 36%
    10:00 +5°C° 0 mm 1 mps 480 mmHg 30%
    11:00 +6°C° 0 mm 2 mps 481 mmHg 27%
    12:00 +6°C° 0 mm 2 mps 481 mmHg 26%
    13:00 +7°C° 0 mm 2 mps 481 mmHg 26%
    14:00 +8°C° 0 mm 2 mps 482 mmHg 25%
    15:00 +8°C° 0 mm 2 mps 482 mmHg 27%
    16:00 +7°C° 0 mm 2 mps 481 mmHg 29%
    17:00 +7°C° 0 mm 2 mps 481 mmHg 31%
    18:00 +6°C° 0 mm 2 mps 480 mmHg 36%
    19:00 +5°C° 0 mm 1 mps 480 mmHg 40%
    20:00 +4°C° 0 mm 1 mps 479 mmHg 45%
    21:00 +4°C° 0 mm 1 mps 479 mmHg 46%
    22:00 +3°C° 0 mm 1 mps 479 mmHg 47%
    23:00 +3°C° 0 mm 1 mps 479 mmHg 47%

    Tomorrow, 27 September, Wednesday

    Time Temperature Precipitation Wind Pressure Humidity
    00:00 +3°C° 0 mm 1 mps 478 mmHg 47%
    01:00 +3°C° 0 mm 1 mps 478 mmHg 46%
    02:00 +2°C° 0 mm 1 mps 478 mmHg 45%
    03:00 +2°C° 0 mm 1 mps 478 mmHg 44%
    04:00 +2°C° 0 mm 1 mps 478 mmHg 43%
    05:00 +1°C° 0 mm 2 mps 478 mmHg 42%
    06:00 +1°C° 0 mm 2 mps 479 mmHg 39%
    07:00 +2°C° 0 mm 2 mps 480 mmHg 35%
    08:00 +3°C° 0 mm 2 mps 480 mmHg 32%
    09:00 +4°C° 0 mm 2 mps 481 mmHg 30%
    10:00 +5°C° 0 mm 2 mps 482 mmHg 27%
    11:00 +6°C° 0 mm 2 mps 482 mmHg 25%
    12:00 +7°C° 0 mm 2 mps 483 mmHg 25%
    13:00 +7°C° 0 mm 3 mps 483 mmHg 26%
    14:00 +8°C° 0 mm 3 mps 483 mmHg 26%
    15:00 +7°C° 0 mm 3 mps 482 mmHg 28%
    16:00 +7°C° 0 mm 3 mps 482 mmHg 30%
    17:00 +5°C° 0 mm 3 mps 482 mmHg 32%
    18:00 +5°C° 0 mm 2 mps 481 mmHg 37%
    19:00 +4°C° 0 mm 2 mps 481 mmHg 41%
    20:00 +3°C° 0 mm 2 mps 480 mmHg 46%
    21:00 +3°C° 0 mm 2 mps 480 mmHg 48%
    22:00 +2°C° 0 mm 2 mps 480 mmHg 49%
    23:00 +3°C° 0 mm 1 mps 479 mmHg 51%

    Day after tomorrow, 28 September, Thursday

    Time Temperature Precipitation Wind Pressure Humidity
    00:00 +3°C° 0 mm 1 mps 479 mmHg 50%
    01:00 +2°C° 0 mm 1 mps 478 mmHg 49%
    02:00 +2°C° 0 mm 1 mps 478 mmHg 48%
    03:00 +2°C° 0 mm 1 mps 478 mmHg 46%
    04:00 +2°C° 0 mm 1 mps 478 mmHg 43%
    05:00 +2°C° 0 mm 1 mps 477 mmHg 41%
    06:00 +3°C° 0 mm 1 mps 478 mmHg 36%
    07:00 +4°C° 0 mm 1 mps 479 mmHg 30%
    08:00 +5°C° 0 mm 1 mps 480 mmHg 25%
    09:00 +6°C° 0 mm 1 mps 481 mmHg 22%
    10:00 +7°C° 0 mm 1 mps 481 mmHg 20%
    11:00 +7°C° 0 mm 2 mps 482 mmHg 17%
    12:00 +8°C° 0 mm 2 mps 482 mmHg 18%
    13:00 +9°C° 0 mm 3 mps 482 mmHg 18%
    14:00 +9°C° 0 mm 3 mps 482 mmHg 19%
    15:00 +9°C° 0 mm 3 mps 482 mmHg 21%
    16:00 +8°C° 0 mm 3 mps 482 mmHg 23%
    17:00 +7°C° 0 mm 3 mps 481 mmHg 25%
    18:00 +5°C° 0 mm 3 mps 481 mmHg 29%
    19:00 +4°C° 0 mm 3 mps 480 mmHg 33%
    20:00 +4°C° 0 mm 2 mps 480 mmHg 37%
    21:00 +3°C° 0 mm 2 mps 479 mmHg 39%
    22:00 +3°C° 0 mm 2 mps 479 mmHg 40%
    23:00 +2°C° 0 mm 2 mps 479 mmHg 42%

    29 September, Friday

    Time Temperature Precipitation Wind Pressure Humidity
    00:00 +2°C° 0 mm 2 mps 478 mmHg 42%
    01:00 +2°C° 0 mm 2 mps 478 mmHg 42%
    02:00 +1°C° 0 mm 2 mps 478 mmHg 42%
    03:00 +1°C° 0 mm 2 mps 478 mmHg 41%
    04:00 +1°C° 0 mm 2 mps 477 mmHg 41%
    05:00 -1°C° 0 mm 2 mps 477 mmHg 41%
    06:00 +1°C° 0 mm 2 mps 478 mmHg 38%
    07:00 +2°C° 0 mm 2 mps 478 mmHg 34%
    08:00 +3°C° 0 mm 2 mps 479 mmHg 31%
    09:00 +4°C° 0 mm 2 mps 480 mmHg 30%
    10:00 +5°C° 0 mm 2 mps 480 mmHg 28%
    11:00 +6°C° 0 mm 2 mps 481 mmHg 26%
    12:00 +5°C° 0 mm 3 mps 481 mmHg 26%
    13:00 +7°C° 0 mm 3 mps 481 mmHg 25%
    14:00 +8°C° 0 mm 3 mps 482 mmHg 25%
    15:00 +6°C° 0 mm 4 mps 481 mmHg 26%
    16:00 +6°C° 0 mm 4 mps 481 mmHg 28%
    17:00 +5°C° 0 mm 4 mps 481 mmHg 29%
    18:00 +4°C° 0 mm 3 mps 480 mmHg 35%
    19:00 +3°C° 0 mm 3 mps 480 mmHg 40%
    20:00 +3°C° 0 mm 2 mps 480 mmHg 46%
    21:00 +2°C° 0 mm 2 mps 480 mmHg 48%
    22:00 +2°C° 0 mm 2 mps 479 mmHg 51%
    23:00 +1°C° 0 mm 2 mps 479 mmHg 53%

    30 September, Saturday

    Time Temperature Precipitation Wind Pressure Humidity
    00:00 +1°C° 0 mm 2 mps 479 mmHg 53%
    01:00 +1°C° 0 mm 2 mps 479 mmHg 52%
    02:00 +1°C° 0 mm 2 mps 479 mmHg 52%
    03:00 -1°C° 0 mm 2 mps 479 mmHg 51%
    04:00 -1°C° 0 mm 2 mps 479 mmHg 51%
    05:00 -1°C° 0 mm 2 mps 478 mmHg 50%
    06:00 +1°C° 0 mm 2 mps 479 mmHg 45%
    07:00 +2°C° 0 mm 2 mps 480 mmHg 40%
    08:00 +2°C° 0 mm 2 mps 480 mmHg 36%
    09:00 +4°C° 0 mm 2 mps 481 mmHg 31%
    10:00 +5°C° 0 mm 2 mps 482 mmHg 26%
    11:00 +6°C° 0 mm 2 mps 483 mmHg 22%
    12:00 +7°C° 0 mm 2 mps 483 mmHg 21%
    13:00 +8°C° 0 mm 3 mps 483 mmHg 21%
    14:00 +8°C° 0 mm 3 mps 483 mmHg 20%
    15:00 +8°C° 0 mm 3 mps 483 mmHg 22%
    16:00 +7°C° 0 mm 3 mps 482 mmHg 25%
    17:00 +7°C° 0 mm 3 mps 482 mmHg 27%
    18:00 +4°C° 0 mm 3 mps 481 mmHg 32%
    19:00 +4°C° 0 mm 2 mps 481 mmHg 38%
    20:00 +3°C° 0 mm 2 mps 480 mmHg 43%
    21:00 +3°C° 0 mm 2 mps 480 mmHg 45%
    22:00 +2°C° 0 mm 2 mps 480 mmHg 47%
    23:00 +2°C° 0 mm 2 mps 480 mmHg 49%

    1 October, Sunday

    Time Temperature Precipitation Wind Pressure Humidity
    00:00 +2°C° 0 mm 2 mps 479 mmHg 49%
    01:00 +1°C° 0 mm 2 mps 479 mmHg 48%
    02:00 +1°C° 0 mm 2 mps 478 mmHg 48%
    03:00 +1°C° 0 mm 2 mps 478 mmHg 46%
    04:00 +1°C° 0 mm 2 mps 478 mmHg 45%
    05:00 +1°C° 0 mm 2 mps 478 mmHg 43%
    06:00 +1°C° 0 mm 2 mps 479 mmHg 38%
    07:00 +2°C° 0 mm 2 mps 479 mmHg 33%
    08:00 +3°C° 0 mm 2 mps 480 mmHg 28%
    09:00 +4°C° 0 mm 2 mps 481 mmHg 25%
    10:00 +6°C° 0 mm 2 mps 482 mmHg 21%
    11:00 +7°C° 0 mm 2 mps 482 mmHg 18%
    12:00 +8°C° 0 mm 2 mps 482 mmHg 18%
    13:00 +8°C° 0 mm 3 mps 482 mmHg 18%
    14:00 +9°C° 0 mm 3 mps 483 mmHg 18%
    15:00 +8°C° 0 mm 3 mps 482 mmHg 19%
    16:00 +8°C° 0 mm 3 mps 482 mmHg 21%
    17:00 +7°C° 0 mm 3 mps 482 mmHg 23%
    18:00 +5°C° 0 mm 3 mps 481 mmHg 27%
    19:00 +5°C° 0 mm 2 mps 481 mmHg 32%
    20:00 +4°C° 0 mm 2 mps 480 mmHg 36%
    21:00 +3°C° 0 mm 2 mps 480 mmHg 38%
    22:00 +3°C° 0 mm 2 mps 480 mmHg 39%
    23:00 +3°C° 0 mm 2 mps 479 mmHg 41%
    Show more